FENGYUN 1C DEB, 29804

Orbit data source: Space-Track

FENGYUN 1C DEB, 29804 is space debris in SSO originally from a launch on Mon, 10 May 1999 UTC launched from the Taiyaun Space Center, China (TSC). Fengyun 1C debris stems from the Chinese weather satellite Fengyun-1C, which was intentionally destroyed by a Chinese anti-satellite missile in 2007. This event dramatically increased the amount of space debris, with thousands of trackable fragments posing hazards to satellites and human spaceflight. The Fengyun 1C debris cloud has become a focal point in discussions about space sustainability and the need for international regulations to prevent the creation of new debris.

Loading next visibility...
Identifier
29804, 1999-025CW
Orbit
SSO
Country
Flag of CNCN / PRC
Related business
Manufacturer
Unknown
Mission
Spacecraft
Bus & Motor
Unknown
Mass
Unknown
Launch date (UTC)
1999-05-10 (27 years ago)
Launch vehicle
Unknown
Launch site
Taiyaun Space Center, China (TSC)
Object type
Payload
Rocket body
Debris
Shape & HBR
Unknown shape, 0.1 m
Radar Cross Section
Medium (>0.1 m² and <1 m²)

Expand to show TLE details & history
Last TLE update: 8 hours ago

TLE from 8 hours ago
0 FENGYUN 1C DEB
1 29804U 99025CW  26170.49177520  .00000197  00000-0  14350-3 0  9992
2 29804  98.8010 177.9884 0098845 132.6130  19.9773 14.04369191995439
Epoch: 2026-06-19T11:48Z
TLE epoch observation values (Epoch: 2026-06-19T11:48:09.377Z)
Latitude
26.71261°
Longitude
-82.32588°
Altitude
814.593 km
Speed
7.483 km/s
True Right ascension
00h 09m 43s
True Declination
26° 34' 33"
Sunlit
Object was in daylight at epoch
Visualization orbit readout
Latitude
Unknown
Longitude
Unknown
Altitude
Unknown
Speed
Unknown
Apparent Right ascension
Unknown
Apparent Declination
Unknown
Sunlit
N/A
Visualization observer readout
Local Sidereal Time
06:21:29
Azimuth
Unknown
Elevation
Unknown
Doppler factor
Unknown
Orbital elements
Apogee altitude
947.591 km
Perigee altitude
804.186 km
Semi-major axis
7,254.025 km
Eccentricity
0.00988
Inclination
98.801°
RAAN
177.9884°
Arg. of periapsis
132.613°
True anomaly
20.36882°
Mean anomaly
19.9773°
Eccentric anomaly
20.1726°
Mean motion
3.51297 °/min
Orbital period
102.48 mins
BSTAR
0.0001435
Loading maneuver chart data...
Computing Atmospheric mass density...

Documentation

Showing up to 5 results
|